,,PA_Meas_PMT16A,,PR_Meas_QMR101_102,,RH_Meas_QMH101,,SR_Meas_QMS101,,TA_Meas_QMH101,,GenWind,,GenWind,
time,status,PA,status,PR,status,RH,status,SR,status,TA,status,DirAvg,status,SpdAvg,
2014-02-07, 01:12:04,INVALID - VALUE NOT AVAILABLE,0,INVALID - VALUE NOT AVAILABLE,0,INVALID - VALUE NOT AVAILABLE,0,INVALID - VALUE NOT AVAILABLE,0,INVALID - VALUE NOT AVAILABLE,0,INVALID,360,INVALID,0,
2014-02-07, 01:16:04,INVALID - VALUE NOT AVAILABLE,0,INVALID - VALUE NOT AVAILABLE,0,INVALID - VALUE NOT AVAILABLE,0,INVALID - VALUE NOT AVAILABLE,0,INVALID - VALUE NOT AVAILABLE,0,INVALID,360,INVALID,0,
2014-02-07, 01:23:04,INVALID - VALUE NOT AVAILABLE,0,INVALID - VALUE NOT AVAILABLE,0,INVALID - VALUE NOT AVAILABLE,0,INVALID - VALUE NOT AVAILABLE,0,INVALID - VALUE NOT AVAILABLE,0,INVALID,360,INVALID,0,
2014-02-07, 06:03:04,INVALID - VALUE NOT AVAILABLE,0,INVALID - VALUE NOT AVAILABLE,0,INVALID - VALUE NOT AVAILABLE,0,INVALID - VALUE NOT AVAILABLE,0,INVALID - VALUE NOT AVAILABLE,0,INVALID,360,INVALID,0,
2014-02-07, 07:58:04,VALID,915.936,VALID,0,VALID,97.2367,VALID,58.2331,VALID,20.0733,VALID,197,VALID,0.787891,
2014-02-07, 07:59:04,VALID,915.946,VALID,0,VALID,97.2443,VALID,61.3489,VALID,20.0148,VALID,170,VALID,1.08906,
2014-02-07, 08:00:04,VALID,915.955,VALID,0,VALID,97.2443,VALID,63.7126,VALID,20.0523,VALID,170,VALID,0.429297,
2014-02-07, 08:01:04,VALID,915.979,VALID,0,VALID,97.2138,VALID,65.1093,VALID,20.1108,VALID,170,VALID,0.514844,
2014-02-07, 08:02:04,VALID,916.03,VALID,0,VALID,97.2214,VALID,64.5721,VALID,20.1303,VALID,170,VALID,0.605078,
2014-02-07, 08:03:04,VALID,916.065,VALID,0,VALID,97.1986,VALID,63.6052,VALID,20.1123,VALID,170,VALID,0.653906,
2014-02-07, 08:04:04,VALID,916.068,VALID,0,VALID,97.2443,VALID,62.2084,VALID,20.0913,VALID,170,VALID,1.11563,
2014-02-07, 08:05:04,VALID,916.093,VALID,0,VALID,97.2367,VALID,61.3489,VALID,20.1108,VALID,160,VALID,0.559375,
2014-02-07, 08:06:04,VALID,916.117,VALID,0,VALID,97.2214,VALID,61.134,VALID,20.1498,VALID,160,VALID,0.402344,
2014-02-07, 08:07:04,VALID,916.127,VALID,0,VALID,97.2138,VALID,61.8861,VALID,20.1888,VALID,160,VALID,0.294922,
2014-02-07, 08:08:04,VALID,916.144,VALID,0.2,VALID,97.2062,VALID,63.6052,VALID,20.2684,VALID,160,VALID,0.0234375,
2014-02-07, 08:09:04,VALID,916.143,VALID,0,VALID,97.2062,VALID,65.754,VALID,20.2668,VALID,160,VALID,0.414063,
2014-02-07, 08:10:04,VALID,916.166,VALID,0,VALID,97.2062,VALID,67.7954,VALID,20.2473,VALID,161,VALID,0.537109,
2014-02-07, 08:11:04,VALID,916.159,VALID,0.2,VALID,97.1986,VALID,69.0847,VALID,20.2473,VALID,166,VALID,0.433203,
2014-02-07, 08:12:04,VALID,916.2,VALID,0,VALID,97.1986,VALID,69.407,VALID,20.2098,VALID,166,VALID,0.755469,
2014-02-07, 08:13:04,VALID,916.205,VALID,0,VALID,97.2214,VALID,69.9442,VALID,20.1888,VALID,174,VALID,0.881641,
2014-02-07, 08:14:04,VALID,916.248,VALID,0,VALID,97.2367,VALID,69.8367,VALID,20.1108,VALID,196,VALID,1.24141,
2014-02-07, 08:15:04,VALID,916.239,VALID,0.2,VALID,97.2367,VALID,70.2665,VALID,20.0913,VALID,178,VALID,0.798047,
2014-02-07, 08:16:04,VALID,916.232,VALID,0,VALID,97.2367,VALID,72.2005,VALID,20.1108,VALID,180,VALID,1.03789,
2014-02-07, 08:17:04,VALID,916.214,VALID,0,VALID,97.2367,VALID,73.9195,VALID,20.0328,VALID,189,VALID,1.14531,
2014-02-07, 08:18:04,VALID,916.251,VALID,0,VALID,97.2519,VALID,75.1014,VALID,20.0538,VALID,198,VALID,0.535937,
2014-02-07, 08:19:04,VALID,916.274,VALID,0.2,VALID,97.2367,VALID,76.0683,VALID,20.1108,VALID,193,VALID,0.548047,
2014-02-07, 08:20:04,VALID,916.268,VALID,0,VALID,97.2138,VALID,77.0353,VALID,20.1108,VALID,169,VALID,0.475,
2014-02-07, 08:21:04,VALID,916.285,VALID,0,VALID,97.2062,VALID,78.3246,VALID,20.1888,VALID,169,VALID,0.155469,
2014-02-07, 08:22:04,VALID,916.273,VALID,0,VALID,97.2062,VALID,79.1841,VALID,20.2083,VALID,169,VALID,0.532031,
2014-02-07, 08:23:04,VALID,916.312,VALID,0,VALID,97.2062,VALID,79.2916,VALID,20.2083,VALID,169,VALID,0.330078,
2014-02-07, 08:24:04,VALID,916.301,VALID,0,VALID,97.1909,VALID,78.2172,VALID,20.2278,VALID,169,VALID,0.376953,
2014-02-07, 08:25:04,VALID,916.307,VALID,0,VALID,97.2214,VALID,77.2502,VALID,20.2083,VALID,176,VALID,0.766797,
2014-02-07, 08:26:04,VALID,916.318,VALID,0,VALID,97.2214,VALID,75.4237,VALID,20.1693,VALID,185,VALID,0.736719,
2014-02-07, 08:27:04,VALID,916.308,VALID,0,VALID,97.2138,VALID,72.8451,VALID,20.1303,VALID,185,VALID,0.571875,
2014-02-07, 08:28:04,VALID,916.318,VALID,0,VALID,97.2062,VALID,68.8698,VALID,20.1693,VALID,186,VALID,0.528906,
2014-02-07, 08:29:04,VALID,916.373,VALID,0,VALID,97.2062,VALID,64.1424,VALID,20.1903,VALID,196,VALID,0.455859,
2014-02-07, 08:30:04,VALID,916.336,VALID,0,VALID,97.229,VALID,59.5224,VALID,20.1303,VALID,195,VALID,0.580469,
2014-02-07, 08:31:04,VALID,916.339,VALID,0,VALID,97.229,VALID,54.5801,VALID,20.1888,VALID,197,VALID,0.60625,
2014-02-07, 08:39:04,VALID,916.421,VALID,0,VALID,97.1833,VALID,55.9768,VALID,20.3074,VALID,218,VALID,0,
2014-02-07, 08:40:04,VALID,916.391,VALID,0,VALID,97.1909,VALID,61.4563,VALID,20.2668,VALID,218,VALID,0.133984,
2014-02-07, 08:41:04,VALID,916.406,VALID,0,VALID,97.2062,VALID,69.5144,VALID,20.2278,VALID,218,VALID,0.41875,
2014-02-07, 08:42:04,VALID,916.421,VALID,0,VALID,97.2138,VALID,76.2832,VALID,20.1498,VALID,218,VALID,0.394141,
2014-02-07, 08:43:04,VALID,916.436,VALID,0,VALID,97.2214,VALID,81.9776,VALID,20.1108,VALID,218,VALID,0.707031,
2014-02-07, 08:44:04,VALID,916.413,VALID,0,VALID,97.229,VALID,86.2752,VALID,20.1108,VALID,218,VALID,0.102734,
2014-02-07, 08:45:04,VALID,916.439,VALID,0,VALID,97.2214,VALID,89.4985,VALID,20.1108,VALID,218,VALID,0.547266,
2014-02-07, 08:46:04,VALID,916.43,VALID,0,VALID,97.2062,VALID,90.358,VALID,20.1108,VALID,218,VALID,0.347266,
2014-02-07, 08:47:04,VALID,916.435,VALID,0.2,VALID,97.2214,VALID,95.0854,VALID,20.1888,VALID,218,VALID,0.392578,
2014-02-07, 08:48:04,VALID,916.404,VALID,0,VALID,97.2062,VALID,96.3747,VALID,20.2863,VALID,218,VALID,0.0148437,
2014-02-07, 08:49:04,VALID,916.464,VALID,0,VALID,97.1833,VALID,100.243,VALID,20.3464,VALID,218,VALID,0.120312,
2014-02-07, 08:50:04,VALID,916.426,VALID,0,VALID,97.1604,VALID,102.391,VALID,20.3854,VALID,218,VALID,0,
2014-02-07, 08:51:04,VALID,916.419,VALID,0,VALID,97.1909,VALID,105.4,VALID,20.4033,VALID,218,VALID,0.183203,
2014-02-07, 08:52:04,VALID,916.433,VALID,0,VALID,97.1757,VALID,108.838,VALID,20.3253,VALID,218,VALID,0.226563,
2014-02-07, 08:53:04,VALID,916.44,VALID,0,VALID,97.1833,VALID,110.987,VALID,20.3464,VALID,218,VALID,0.0128906,
2014-02-07, 08:54:04,VALID,916.443,VALID,0,VALID,97.2138,VALID,109.375,VALID,20.2879,VALID,218,VALID,0.216406,
2014-02-07, 08:55:04,VALID,916.453,VALID,0,VALID,97.2062,VALID,101.962,VALID,20.2083,VALID,218,VALID,0.228125,
2014-02-07, 08:56:04,VALID,916.453,VALID,0,VALID,97.2138,VALID,90.1431,VALID,20.2293,VALID,218,VALID,0.325,
2014-02-07, 08:57:04,VALID,916.451,VALID,0,VALID,97.2062,VALID,82.1925,VALID,20.2879,VALID,218,VALID,0.466406,
2014-02-07, 08:58:04,VALID,916.452,VALID,0,VALID,97.1833,VALID,78.0023,VALID,20.2863,VALID,218,VALID,0,
2014-02-07, 08:59:04,VALID,916.474,VALID,0,VALID,97.1757,VALID,78.3246,VALID,20.3643,VALID,218,VALID,0,
2014-02-07, 09:00:04,VALID,916.463,VALID,0,VALID,97.1528,VALID,83.6967,VALID,20.4618,VALID,218,VALID,0,
2014-02-07, 09:01:04,VALID,916.477,VALID,0,VALID,97.1604,VALID,86.3827,VALID,20.4813,VALID,218,VALID,0,
2014-02-07, 09:02:04,VALID,916.499,VALID,0,VALID,97.1528,VALID,85.0934,VALID,20.5204,VALID,218,VALID,0.0636719,
2014-02-07, 09:04:04,VALID,916.484,VALID,0,VALID,97.1757,VALID,84.8785,VALID,20.3643,VALID,218,VALID,0.0765625,
2014-02-07, 09:05:04,VALID,916.521,VALID,0,VALID,97.1681,VALID,86.4901,VALID,20.3269,VALID,218,VALID,0.394922,
2014-02-07, 09:06:04,VALID,916.495,VALID,0,VALID,97.2062,VALID,89.7134,VALID,20.2278,VALID,218,VALID,0.114844,
2014-02-07, 09:07:04,VALID,916.474,VALID,0,VALID,97.1833,VALID,92.3994,VALID,20.3074,VALID,218,VALID,0.0125,
2014-02-07, 09:08:04,VALID,916.488,VALID,0,VALID,97.1757,VALID,92.0771,VALID,20.3659,VALID,217,VALID,0,
2014-02-07, 09:09:04,VALID,916.519,VALID,0,VALID,97.1681,VALID,90.8952,VALID,20.4439,VALID,218,VALID,0.0140625,
2014-02-07, 09:10:04,VALID,916.482,VALID,0,VALID,97.1452,VALID,93.4738,VALID,20.4228,VALID,218,VALID,0,
2014-02-07, 09:11:04,VALID,916.504,VALID,0,VALID,97.1528,VALID,99.0607,VALID,20.4829,VALID,218,VALID,0.00195313,
2014-02-07, 09:12:04,VALID,916.5,VALID,0,VALID,97.1452,VALID,104.648,VALID,20.4618,VALID,218,VALID,0,
2014-02-07, 09:13:04,VALID,916.485,VALID,0,VALID,97.1528,VALID,102.821,VALID,20.4829,VALID,218,VALID,0.104687,
2014-02-07, 09:14:04,VALID,916.505,VALID,0,VALID,97.1681,VALID,98.3087,VALID,20.4049,VALID,218,VALID,0.866797,
2014-02-07, 09:15:04,VALID,916.495,VALID,0,VALID,97.1757,VALID,99.4905,VALID,20.4049,VALID,218,VALID,0.742578,
2014-02-07, 09:16:04,VALID,916.505,VALID,0,VALID,97.1833,VALID,108.086,VALID,20.3269,VALID,218,VALID,0.402734,
2014-02-07, 09:17:04,VALID,916.473,VALID,0,VALID,97.1757,VALID,116.789,VALID,20.3448,VALID,218,VALID,0.0761719,
2014-02-07, 09:18:04,VALID,916.494,VALID,0,VALID,97.1528,VALID,121.731,VALID,20.4439,VALID,218,VALID,0.639453,
2014-02-07, 09:19:04,VALID,916.452,VALID,0,VALID,97.1452,VALID,124.524,VALID,20.4228,VALID,350,VALID,0.930859,
2014-02-07, 09:20:04,VALID,916.473,VALID,0,VALID,97.1604,VALID,125.599,VALID,20.4813,VALID,344,VALID,0.8625,
2014-02-07, 09:21:04,VALID,916.479,VALID,0,VALID,97.1376,VALID,126.781,VALID,20.5204,VALID,352,VALID,0.760938,
2014-02-07, 09:22:04,VALID,916.467,VALID,0,VALID,97.1147,VALID,130.648,VALID,20.5609,VALID,354,VALID,0.655078,
2014-02-07, 09:23:04,VALID,916.446,VALID,0,VALID,97.1376,VALID,131.938,VALID,20.4813,VALID,4,VALID,0.872656,
2014-02-07, 09:24:04,VALID,916.449,VALID,0,VALID,97.1376,VALID,139.351,VALID,20.5204,VALID,19,VALID,1.28047,
2014-02-07, 09:25:04,VALID,916.449,VALID,0,VALID,97.1376,VALID,145.368,VALID,20.5009,VALID,2,VALID,0.983203,
2014-02-07, 09:26:04,VALID,916.465,VALID,0,VALID,97.1299,VALID,144.831,VALID,20.5414,VALID,24,VALID,0.595312,
2014-02-07, 09:27:04,VALID,916.514,VALID,0,VALID,97.1299,VALID,144.401,VALID,20.5414,VALID,22,VALID,0.603125,
2014-02-07, 09:28:04,VALID,916.513,VALID,0,VALID,97.1376,VALID,147.194,VALID,20.4813,VALID,341,VALID,0.847656,
2014-02-07, 09:29:04,VALID,916.464,VALID,0,VALID,97.1299,VALID,150.203,VALID,20.4813,VALID,11,VALID,1.28125,
2014-02-07, 09:30:04,VALID,916.499,VALID,0,VALID,97.1299,VALID,149.988,VALID,20.5625,VALID,10,VALID,0.723437,
2014-02-07, 09:31:04,VALID,916.495,VALID,0,VALID,97.0994,VALID,152.244,VALID,20.6585,VALID,13,VALID,0.853906,
2014-02-07, 09:32:04,VALID,916.47,VALID,0,VALID,97.1223,VALID,158.153,VALID,20.5399,VALID,4,VALID,0.850781,
2014-02-07, 09:33:04,VALID,916.443,VALID,0,VALID,97.1299,VALID,171.798,VALID,20.5009,VALID,25,VALID,1.16719,
2014-02-07, 09:34:04,VALID,916.422,VALID,0,VALID,97.1299,VALID,187.807,VALID,20.5009,VALID,26,VALID,0.906641,
2014-02-07, 09:35:04,VALID,916.429,VALID,0,VALID,97.1452,VALID,195.221,VALID,20.4829,VALID,34,VALID,0.956641,
2014-02-07, 09:36:04,VALID,916.401,VALID,0,VALID,97.1223,VALID,190.601,VALID,20.5594,VALID,28,VALID,0.930078,
2014-02-07, 09:37:04,VALID,916.411,VALID,0,VALID,97.1299,VALID,188.022,VALID,20.5789,VALID,22,VALID,0.888281,
2014-02-07, 09:38:04,VALID,916.416,VALID,0,VALID,97.1147,VALID,192.642,VALID,20.6764,VALID,25,VALID,0.407813,
2014-02-07, 09:39:04,VALID,916.417,VALID,0,VALID,97.1071,VALID,189.419,VALID,20.6374,VALID,25,VALID,0.638281,
2014-02-07, 09:40:04,VALID,916.451,VALID,0,VALID,97.069,VALID,175.989,VALID,20.6959,VALID,25,VALID,0.084375,
2014-02-07, 09:41:04,VALID,916.442,VALID,0,VALID,97.0613,VALID,164.492,VALID,20.7544,VALID,25,VALID,0.371875,
2014-02-07, 09:42:04,VALID,916.434,VALID,0,VALID,97.069,VALID,159.872,VALID,20.8129,VALID,25,VALID,0.398047,
2014-02-07, 09:43:04,VALID,916.441,VALID,0,VALID,97.0537,VALID,159.12,VALID,20.891,VALID,25,VALID,0.105078,
2014-02-07, 09:44:04,VALID,916.456,VALID,0,VALID,97.0308,VALID,154.823,VALID,20.9511,VALID,25,VALID,0,
2014-02-07, 09:45:04,VALID,916.451,VALID,0,VALID,97.0537,VALID,147.839,VALID,20.93,VALID,25,VALID,0.420312,
2014-02-07, 09:46:04,VALID,916.452,VALID,0,VALID,97.0461,VALID,144.079,VALID,20.9105,VALID,8,VALID,1.20977,
2014-02-07, 09:47:04,VALID,916.462,VALID,0,VALID,97.0385,VALID,145.046,VALID,20.9511,VALID,27,VALID,0.892578,
2014-02-07, 09:48:04,VALID,916.471,VALID,0,VALID,97.0613,VALID,146.013,VALID,20.873,VALID,27,VALID,0.238281,
2014-02-07, 09:49:04,VALID,916.466,VALID,0,VALID,97.0461,VALID,149.558,VALID,20.9316,VALID,27,VALID,0,
2014-02-07, 09:50:04,VALID,916.457,VALID,0,VALID,97.0308,VALID,152.137,VALID,20.9511,VALID,27,VALID,0,
2014-02-07, 09:51:04,VALID,916.463,VALID,0,VALID,97.0232,VALID,154.5,VALID,20.912,VALID,27,VALID,0.198828,
2014-02-07, 09:52:04,VALID,916.455,VALID,0,VALID,97.008,VALID,156.327,VALID,20.9901,VALID,27,VALID,0,
2014-02-07, 09:53:04,VALID,916.453,VALID,0,VALID,97.008,VALID,159.443,VALID,21.0486,VALID,27,VALID,0,
2014-02-07, 09:54:04,VALID,916.425,VALID,0,VALID,97.0156,VALID,170.509,VALID,21.0876,VALID,27,VALID,0.0753906,
2014-02-07, 09:55:04,VALID,916.439,VALID,0,VALID,97.0156,VALID,185.443,VALID,21.0486,VALID,15,VALID,0.788281,
2014-02-07, 09:56:04,VALID,916.42,VALID,0,VALID,97.0003,VALID,195.758,VALID,21.0681,VALID,20,VALID,0.521094,
2014-02-07, 09:57:04,VALID,916.439,VALID,0,VALID,96.9927,VALID,226.379,VALID,21.1657,VALID,17,VALID,0.244531,
2014-02-07, 09:58:04,VALID,916.412,VALID,0,VALID,96.9698,VALID,287.835,VALID,21.2437,VALID,17,VALID,0,
2014-02-07, 09:59:04,VALID,916.424,VALID,0,VALID,96.9775,VALID,364.011,VALID,21.3022,VALID,17,VALID,0.221484,
2014-02-07, 10:00:04,VALID,916.437,VALID,0,VALID,96.9546,VALID,352.622,VALID,21.3412,VALID,17,VALID,0,
2014-02-07, 10:01:04,VALID,916.429,VALID,0,VALID,96.9317,VALID,323.076,VALID,21.3591,VALID,17,VALID,0.214453,
2014-02-07, 10:02:04,VALID,916.42,VALID,0,VALID,96.9775,VALID,299.331,VALID,21.3217,VALID,284,VALID,0.792578,
2014-02-07, 10:03:04,VALID,916.446,VALID,0,VALID,96.9546,VALID,289.876,VALID,21.3006,VALID,295,VALID,0.903516,
2014-02-07, 10:04:04,VALID,916.452,VALID,0,VALID,96.947,VALID,300.298,VALID,21.3412,VALID,292,VALID,0.125391,
2014-02-07, 10:05:04,VALID,916.469,VALID,0,VALID,96.9546,VALID,315.017,VALID,21.2242,VALID,288,VALID,0.366016,
2014-02-07, 10:06:04,VALID,916.487,VALID,0,VALID,96.947,VALID,322.216,VALID,21.2811,VALID,292,VALID,0.608984,
2014-02-07, 10:07:04,VALID,916.471,VALID,0,VALID,96.9317,VALID,325.762,VALID,21.2616,VALID,285,VALID,0.535156,
2014-02-07, 10:08:04,VALID,916.482,VALID,0,VALID,96.9012,VALID,322.109,VALID,21.2827,VALID,285,VALID,0.484766,
2014-02-07, 10:09:04,VALID,916.492,VALID,0,VALID,96.9089,VALID,339.729,VALID,21.2811,VALID,293,VALID,0.419141,
2014-02-07, 10:10:04,VALID,916.522,VALID,0,VALID,96.886,VALID,409.458,VALID,21.3022,VALID,307,VALID,0.544922,
2014-02-07, 10:11:04,VALID,916.525,VALID,0,VALID,96.8784,VALID,355.308,VALID,21.3201,VALID,280,VALID,0.686328,
2014-02-07, 10:12:04,VALID,916.536,VALID,0,VALID,96.8784,VALID,321.894,VALID,21.2226,VALID,280,VALID,0.730469,
2014-02-07, 10:13:04,VALID,916.528,VALID,0,VALID,96.825,VALID,304.811,VALID,21.2031,VALID,280,VALID,0.446875,
2014-02-07, 10:14:04,VALID,916.524,VALID,0,VALID,96.7945,VALID,298.686,VALID,21.2421,VALID,280,VALID,0.349609,
2014-02-07, 10:15:04,VALID,916.528,VALID,0,VALID,96.7716,VALID,300.728,VALID,21.3006,VALID,284,VALID,0.694922,
2014-02-07, 10:16:04,VALID,916.55,VALID,0,VALID,96.7335,VALID,307.389,VALID,21.2421,VALID,291,VALID,0.685938,
2014-02-07, 10:17:04,VALID,916.526,VALID,0,VALID,96.6954,VALID,315.77,VALID,21.3201,VALID,285,VALID,0.524219,
2014-02-07, 10:18:04,VALID,916.499,VALID,0,VALID,96.6497,VALID,325.869,VALID,21.4762,VALID,315,VALID,0.590234,
2014-02-07, 10:19:04,VALID,916.515,VALID,0,VALID,96.6039,VALID,332.208,VALID,21.3965,VALID,302,VALID,0.6625,
2014-02-07, 10:20:04,VALID,916.48,VALID,0,VALID,96.5429,VALID,330.919,VALID,21.4762,VALID,308,VALID,0.794141,
2014-02-07, 10:21:04,VALID,916.477,VALID,0,VALID,96.4819,VALID,329.2,VALID,21.5168,VALID,304,VALID,0.674219,
2014-02-07, 10:22:04,VALID,916.479,VALID,0,VALID,96.4438,VALID,338.547,VALID,21.5314,VALID,303,VALID,0.440234,
2014-02-07, 10:23:04,VALID,916.475,VALID,0,VALID,96.421,VALID,326.514,VALID,21.6518,VALID,306,VALID,0.76875,
2014-02-07, 10:24:04,VALID,916.454,VALID,0,VALID,96.3524,VALID,303.629,VALID,21.7087,VALID,318,VALID,0.430078,
2014-02-07, 10:25:04,VALID,916.416,VALID,0,VALID,96.238,VALID,285.793,VALID,21.6875,VALID,21,VALID,2.22773,
2014-02-07, 10:26:04,VALID,916.44,VALID,0,VALID,95.9102,VALID,291.38,VALID,21.6696,VALID,17,VALID,1.16953,
2014-02-07, 10:27:04,VALID,916.432,VALID,0,VALID,95.7882,VALID,339.299,VALID,21.8062,VALID,30,VALID,0.926953,
2014-02-07, 10:28:04,VALID,916.449,VALID,0,VALID,95.529,VALID,577.604,VALID,21.8452,VALID,23,VALID,0.156641,
2014-02-07, 10:29:04,VALID,916.433,VALID,0,VALID,95.3461,VALID,567.074,VALID,21.9428,VALID,20,VALID,0.734766,
2014-02-07, 10:30:04,VALID,916.427,VALID,0,VALID,95.1174,VALID,472.741,VALID,22.0598,VALID,325,VALID,1.20469,
2014-02-07, 10:31:04,VALID,916.43,VALID,0,VALID,94.8963,VALID,479.617,VALID,22.1574,VALID,16,VALID,0.702734,
2014-02-07, 10:32:04,VALID,916.438,VALID,0,VALID,94.5761,VALID,515.18,VALID,22.2354,VALID,353,VALID,0.296875,
2014-02-07, 10:33:04,VALID,916.39,VALID,0,VALID,94.2483,VALID,800.007,VALID,22.333,VALID,353,VALID,0.0113281,
2014-02-07, 10:34:04,VALID,916.355,VALID,0,VALID,94.012,VALID,572.446,VALID,22.5299,VALID,353,VALID,0.183203,
2014-02-07, 10:35:04,VALID,916.343,VALID,0,VALID,93.6079,VALID,912.39,VALID,22.686,VALID,353,VALID,0.314844,
2014-02-07, 10:36:04,VALID,916.372,VALID,0,VALID,93.3868,VALID,853.513,VALID,22.9787,VALID,38,VALID,0.702344,
2014-02-07, 10:37:04,VALID,916.328,VALID,0,VALID,91.5191,VALID,514.965,VALID,23.1527,VALID,38,VALID,0.401172,
2014-02-07, 10:38:04,VALID,916.299,VALID,0,VALID,90.0554,VALID,454.369,VALID,23.3283,VALID,35,VALID,0.359766,
2014-02-07, 10:39:04,VALID,916.29,VALID,0,VALID,88.2715,VALID,483.7,VALID,23.4472,VALID,324,VALID,0.776172,
2014-02-07, 10:40:04,VALID,916.3,VALID,0,VALID,86.9527,VALID,604.034,VALID,23.4277,VALID,310,VALID,1.28711,
2014-02-07, 10:41:04,VALID,916.303,VALID,0,VALID,85.6567,VALID,668.499,VALID,23.3283,VALID,302,VALID,0.909375,
2014-02-07, 10:42:04,VALID,916.282,VALID,0,VALID,85.2755,VALID,415.905,VALID,23.1722,VALID,298,VALID,0.864062,
2014-02-07, 10:43:04,VALID,916.266,VALID,0,VALID,85.6567,VALID,343.06,VALID,23.1154,VALID,295,VALID,1.28125,
2014-02-07, 10:44:04,VALID,916.274,VALID,0,VALID,86.4038,VALID,350.473,VALID,22.9983,VALID,284,VALID,0.488672,
2014-02-07, 10:45:04,VALID,916.25,VALID,0,VALID,84.0024,VALID,354.663,VALID,22.7818,VALID,242,VALID,1.34492,
2014-02-07, 10:46:04,VALID,916.229,VALID,0,VALID,85.1231,VALID,366.159,VALID,22.6062,VALID,247,VALID,0.795313,
2014-02-07, 10:47:04,VALID,916.217,VALID,0,VALID,87.433,VALID,384.317,VALID,22.6665,VALID,246,VALID,1.18828,
2014-02-07, 10:48:04,VALID,916.172,VALID,0,VALID,85.5805,VALID,380.986,VALID,22.5689,VALID,220,VALID,1.07031,
2014-02-07, 10:49:04,VALID,916.16,VALID,0,VALID,87.1051,VALID,368.631,VALID,22.5867,VALID,220,VALID,0.472656,
2014-02-07, 10:50:04,VALID,916.149,VALID,0,VALID,88.7594,VALID,373.788,VALID,22.7818,VALID,208,VALID,0.187891,
2014-02-07, 10:51:04,VALID,916.103,VALID,0,VALID,86.8993,VALID,377.548,VALID,22.8387,VALID,338,VALID,0.747266,
2014-02-07, 10:52:04,VALID,916.091,VALID,0,VALID,83.7356,VALID,376.151,VALID,22.8989,VALID,22,VALID,1.85977,
2014-02-07, 10:53:04,VALID,916.101,VALID,0,VALID,83.8728,VALID,374.755,VALID,22.9965,VALID,13,VALID,0.982031,
2014-02-07, 10:54:04,VALID,916.065,VALID,0,VALID,82.9046,VALID,376.259,VALID,23.0551,VALID,30,VALID,0.983203,
2014-02-07, 10:55:04,VALID,916.085,VALID,0,VALID,84.5361,VALID,375.185,VALID,23.1527,VALID,32,VALID,0.993359,
2014-02-07, 10:56:04,VALID,916.081,VALID,0,VALID,82.0889,VALID,378.408,VALID,23.2502,VALID,1,VALID,1.14844,
2014-02-07, 10:57:04,VALID,916.07,VALID,0,VALID,83.6746,VALID,388.615,VALID,23.2112,VALID,10,VALID,0.558984,
2014-02-07, 10:58:04,VALID,916.048,VALID,0,VALID,85.0316,VALID,402.689,VALID,23.2112,VALID,11,VALID,0.516016,
2014-02-07, 10:59:04,VALID,916.071,VALID,0,VALID,86.8536,VALID,432.021,VALID,23.3461,VALID,11,VALID,0.142969,
2014-02-07, 11:00:04,VALID,916.057,VALID,0,VALID,84.6885,VALID,454.369,VALID,23.4845,VALID,353,VALID,0.223047,
2014-02-07, 11:01:04,VALID,916.071,VALID,0,VALID,83.2401,VALID,698.582,VALID,23.6211,VALID,351,VALID,0.428516,
2014-02-07, 11:02:04,VALID,916.02,VALID,0,VALID,83.3392,VALID,655.391,VALID,23.7968,VALID,351,VALID,0.1625,
2014-02-07, 11:03:04,VALID,916.031,VALID,0,VALID,81.8298,VALID,688.375,VALID,24.0311,VALID,335,VALID,0.314063,
2014-02-07, 11:04:04,VALID,916.004,VALID,0,VALID,80.0611,VALID,437.715,VALID,24.2263,VALID,317,VALID,0.609766,
2014-02-07, 11:05:04,VALID,915.998,VALID,0,VALID,76.7068,VALID,478.435,VALID,24.0878,VALID,264,VALID,0.66875,
2014-02-07, 11:06:04,VALID,915.993,VALID,0,VALID,78.0866,VALID,494.981,VALID,24.0311,VALID,265,VALID,1.00078,
2014-02-07, 11:07:04,VALID,915.948,VALID,0,VALID,77.2252,VALID,475.535,VALID,23.8749,VALID,244,VALID,1.05039,
2014-02-07, 11:08:04,VALID,915.977,VALID,0,VALID,78.4831,VALID,440.294,VALID,23.6797,VALID,243,VALID,1.29297,
2014-02-07, 11:09:04,VALID,915.951,VALID,0,VALID,78.445,VALID,433.203,VALID,23.5608,VALID,244,VALID,0.753906,
2014-02-07, 11:10:04,VALID,915.903,VALID,0,VALID,79.3826,VALID,431.376,VALID,23.6211,VALID,244,VALID,0.107813,
2014-02-07, 11:11:04,VALID,915.884,VALID,0,VALID,76.6458,VALID,455.873,VALID,23.6584,VALID,297,VALID,1.29961,
2014-02-07, 11:12:04,VALID,915.901,VALID,0,VALID,77.1718,VALID,420.525,VALID,23.6016,VALID,296,VALID,0.780469,
2014-02-07, 11:13:04,VALID,915.837,VALID,0,VALID,78.3458,VALID,438.897,VALID,23.6211,VALID,290,VALID,0.479297,
2014-02-07, 11:14:04,VALID,915.841,VALID,0,VALID,76.3409,VALID,478.113,VALID,23.6779,VALID,338,VALID,0.456641,
2014-02-07, 11:15:04,VALID,915.815,VALID,0,VALID,77.5301,VALID,800.759,VALID,23.7364,VALID,338,VALID,1.17617,
2014-02-07, 11:16:04,VALID,915.805,VALID,0,VALID,77.0804,VALID,1082.36,VALID,23.8145,VALID,338,VALID,0.379687,
2014-02-07, 11:17:04,VALID,915.825,VALID,0,VALID,75.0449,VALID,425.36,VALID,23.9121,VALID,279,VALID,0.948828,
2014-02-07, 11:18:04,VALID,915.771,VALID,0,VALID,73.2077,VALID,610.266,VALID,23.834,VALID,307,VALID,0.990625,
2014-02-07, 11:19:04,VALID,915.755,VALID,0,VALID,75.5633,VALID,592.216,VALID,23.7755,VALID,239,VALID,0.920313,
2014-02-07, 11:20:04,VALID,915.764,VALID,0,VALID,76.4629,VALID,1066.78,VALID,23.9121,VALID,253,VALID,0.556641,
2014-02-07, 11:21:04,VALID,915.771,VALID,0,VALID,75.5557,VALID,443.732,VALID,24.1854,VALID,356,VALID,1.14414,
2014-02-07, 11:22:04,VALID,915.766,VALID,0,VALID,75.7539,VALID,989.533,VALID,24.4411,VALID,67,VALID,0.922266,
2014-02-07, 11:23:04,VALID,915.734,VALID,0,VALID,76.7525,VALID,906.374,VALID,24.7711,VALID,64,VALID,0.392578,
2014-02-07, 11:24:04,VALID,915.757,VALID,0,VALID,74.9077,VALID,1067,VALID,25.1617,VALID,61,VALID,0.294141,
2014-02-07, 11:25:04,VALID,915.757,VALID,0,VALID,70.0592,VALID,1068.39,VALID,25.4585,VALID,278,VALID,1.36719,
2014-02-07, 11:26:04,VALID,915.743,VALID,0,VALID,69.0072,VALID,1085.48,VALID,25.3003,VALID,280,VALID,1.41562,
2014-02-07, 11:27:04,VALID,915.739,VALID,0,VALID,71.9879,VALID,1085.26,VALID,25.0836,VALID,286,VALID,1.35,
2014-02-07, 11:28:04,VALID,915.739,VALID,0,VALID,71.4085,VALID,1109.65,VALID,25.0836,VALID,277,VALID,1.75469,
2014-02-07, 11:29:04,VALID,915.748,VALID,0,VALID,69.5865,VALID,486.494,VALID,24.8883,VALID,280,VALID,1.1375,
2014-02-07, 11:30:04,VALID,915.712,VALID,0,VALID,67.7493,VALID,429.227,VALID,24.7888,VALID,275,VALID,0.867969,
2014-02-07, 11:31:04,VALID,915.7,VALID,0,VALID,69.4112,VALID,482.626,VALID,24.7144,VALID,275,VALID,0.496484,
2014-02-07, 11:32:04,VALID,915.679,VALID,0,VALID,69.5179,VALID,593.612,VALID,24.7693,VALID,285,VALID,0.476563,